Meteo pe oră la Dabizhuang

Astăzi, 23 Aprilie, Vineri

Timp Temperatura Precipitaţii Vânt Presiune Umiditate
00:00 +11°C° 0 mm 4 m/s 760 mmHg 85%
01:00 +11°C° 0 mm 4 m/s 760 mmHg 83%
02:00 +12°C° 0 mm 4 m/s 760 mmHg 81%
03:00 +12°C° 0 mm 4 m/s 761 mmHg 80%
04:00 +11°C° 0 mm 4 m/s 761 mmHg 80%
05:00 +11°C° 0 mm 3 m/s 761 mmHg 80%
06:00 +12°C° 0 mm 4 m/s 761 mmHg 76%
07:00 +13°C° 0 mm 5 m/s 761 mmHg 71%
08:00 +14°C° 0 mm 7 m/s 762 mmHg 68%
09:00 +14°C° 0 mm 7 m/s 762 mmHg 67%
10:00 +15°C° 0 mm 7 m/s 763 mmHg 66%
11:00 +15°C° 0 mm 7 m/s 763 mmHg 65%
12:00 +15°C° 0 mm 7 m/s 763 mmHg 66%
13:00 +15°C° 0 mm 7 m/s 764 mmHg 68%
14:00 +14°C° 0 mm 6 m/s 764 mmHg 69%
15:00 +15°C° 0 mm 6 m/s 764 mmHg 66%
16:00 +15°C° 0 mm 7 m/s 764 mmHg 64%
17:00 +16°C° 0 mm 7 m/s 764 mmHg 61%
18:00 +15°C° 0 mm 6 m/s 764 mmHg 65%
19:00 +14°C° 0 mm 6 m/s 765 mmHg 69%
20:00 +13°C° 0 mm 6 m/s 766 mmHg 72%
21:00 +13°C° 0 mm 5 m/s 766 mmHg 74%
22:00 +12°C° 0 mm 4 m/s 766 mmHg 77%
23:00 +12°C° 0 mm 3 m/s 766 mmHg 79%

Mâine, 24 Aprilie, Sâmbătă

Timp Temperatura Precipitaţii Vânt Presiune Umiditate
00:00 +12°C° 0 mm 3 m/s 767 mmHg 78%
01:00 +12°C° 0 mm 3 m/s 767 mmHg 77%
02:00 +13°C° 0 mm 2 m/s 767 mmHg 77%
03:00 +12°C° 0 mm 3 m/s 767 mmHg 76%
04:00 +12°C° 0 mm 3 m/s 767 mmHg 76%
05:00 +12°C° 0 mm 3 m/s 768 mmHg 75%
06:00 +13°C° 0 mm 3 m/s 768 mmHg 71%
07:00 +14°C° 0 mm 4 m/s 768 mmHg 67%
08:00 +15°C° 0 mm 4 m/s 769 mmHg 62%
09:00 +16°C° 0 mm 5 m/s 769 mmHg 59%
10:00 +17°C° 0 mm 5 m/s 769 mmHg 56%
11:00 +19°C° 0 mm 5 m/s 769 mmHg 53%
12:00 +19°C° 0 mm 5 m/s 769 mmHg 52%
13:00 +19°C° 0 mm 4 m/s 768 mmHg 51%
14:00 +19°C° 0 mm 4 m/s 768 mmHg 50%
15:00 +19°C° 0 mm 4 m/s 768 mmHg 50%
16:00 +19°C° 0 mm 3 m/s 768 mmHg 50%
17:00 +19°C° 0 mm 3 m/s 768 mmHg 50%
18:00 +18°C° 0 mm 3 m/s 768 mmHg 54%
19:00 +17°C° 0 mm 3 m/s 768 mmHg 59%
20:00 +16°C° 0 mm 2 m/s 769 mmHg 63%
21:00 +16°C° 0 mm 2 m/s 769 mmHg 64%
22:00 +15°C° 0 mm 1 m/s 769 mmHg 66%
23:00 +15°C° 0 mm 1 m/s 769 mmHg 68%

Poimâine, 25 Aprilie, Duminică

Timp Temperatura Precipitaţii Vânt Presiune Umiditate
00:00 +14°C° 0 mm 1 m/s 769 mmHg 70%
01:00 +14°C° 0 mm 1 m/s 769 mmHg 71%
02:00 +14°C° 0 mm 2 m/s 768 mmHg 72%
03:00 +13°C° 0 mm 1 m/s 768 mmHg 74%
04:00 +13°C° 0 mm 1 m/s 768 mmHg 75%
05:00 +13°C° 0 mm 1 m/s 768 mmHg 76%
06:00 +14°C° 0 mm 1 m/s 769 mmHg 71%
07:00 +15°C° 0 mm 2 m/s 769 mmHg 65%
08:00 +16°C° 0 mm 2 m/s 769 mmHg 59%
09:00 +17°C° 0 mm 2 m/s 769 mmHg 51%
10:00 +18°C° 0 mm 2 m/s 769 mmHg 44%
11:00 +19°C° 0 mm 3 m/s 769 mmHg 37%
12:00 +20°C° 0 mm 3 m/s 768 mmHg 34%
13:00 +20°C° 0 mm 3 m/s 767 mmHg 32%
14:00 +21°C° 0 mm 3 m/s 767 mmHg 29%
15:00 +21°C° 0 mm 3 m/s 766 mmHg 28%
16:00 +20°C° 0 mm 4 m/s 766 mmHg 27%
17:00 +20°C° 0 mm 4 m/s 766 mmHg 26%
18:00 +18°C° 0 mm 4 m/s 766 mmHg 27%
19:00 +17°C° 0 mm 4 m/s 766 mmHg 28%
20:00 +14°C° 0 mm 3 m/s 766 mmHg 29%
21:00 +14°C° 0 mm 3 m/s 766 mmHg 28%
22:00 +14°C° 0 mm 3 m/s 766 mmHg 27%
23:00 +14°C° 0 mm 2 m/s 765 mmHg 25%

26 Aprilie, Luni

Timp Temperatura Precipitaţii Vânt Presiune Umiditate
00:00 +14°C° 0 mm 2 m/s 765 mmHg 25%
01:00 +14°C° 0 mm 2 m/s 764 mmHg 25%
02:00 +14°C° 0 mm 1 m/s 764 mmHg 24%
03:00 +14°C° 0 mm 1 m/s 763 mmHg 24%
04:00 +14°C° 0 mm 1 m/s 763 mmHg 25%
05:00 +14°C° 0 mm 1 m/s 763 mmHg 25%
06:00 +13°C° 0.3 mm 1 m/s 763 mmHg 37%
07:00 +13°C° 0.3 mm 1 m/s 763 mmHg 50%
08:00 +12°C° 0.3 mm 1 m/s 763 mmHg 63%
09:00 +12°C° 0.6 mm 2 m/s 763 mmHg 66%
10:00 +12°C° 0.6 mm 2 m/s 763 mmHg 69%
11:00 +12°C° 0.6 mm 2 m/s 763 mmHg 72%
12:00 +13°C° 0.1 mm 2 m/s 762 mmHg 69%
13:00 +13°C° 0.1 mm 3 m/s 762 mmHg 66%
14:00 +16°C° 0.1 mm 3 m/s 761 mmHg 63%
15:00 +16°C° 0 mm 3 m/s 761 mmHg 63%
16:00 +17°C° 0 mm 4 m/s 760 mmHg 62%
17:00 +17°C° 0 mm 4 m/s 760 mmHg 62%
18:00 +15°C° 0 mm 4 m/s 760 mmHg 67%
19:00 +15°C° 0 mm 4 m/s 760 mmHg 71%
20:00 +14°C° 0 mm 4 m/s 760 mmHg 75%
21:00 +14°C° 0 mm 4 m/s 760 mmHg 78%
22:00 +14°C° 0 mm 4 m/s 760 mmHg 80%
23:00 +13°C° 0 mm 3 m/s 760 mmHg 83%

27 Aprilie, Marţi

Timp Temperatura Precipitaţii Vânt Presiune Umiditate
00:00 +13°C° 0 mm 3 m/s 759 mmHg 85%
01:00 +13°C° 0 mm 3 m/s 759 mmHg 87%
02:00 +13°C° 0 mm 3 m/s 759 mmHg 88%
03:00 +12°C° 0 mm 3 m/s 758 mmHg 89%
04:00 +12°C° 0 mm 3 m/s 758 mmHg 90%
05:00 +12°C° 0 mm 3 m/s 757 mmHg 91%
06:00 +13°C° 0 mm 4 m/s 758 mmHg 74%
07:00 +15°C° 0 mm 5 m/s 758 mmHg 57%
08:00 +17°C° 0 mm 6 m/s 758 mmHg 40%
09:00 +18°C° 0 mm 7 m/s 758 mmHg 34%
10:00 +20°C° 0 mm 8 m/s 758 mmHg 28%
11:00 +22°C° 0 mm 8 m/s 759 mmHg 23%
12:00 +23°C° 0 mm 8 m/s 758 mmHg 21%
13:00 +24°C° 0 mm 8 m/s 758 mmHg 19%
14:00 +24°C° 0 mm 7 m/s 757 mmHg 18%
15:00 +24°C° 0 mm 7 m/s 757 mmHg 18%
16:00 +24°C° 0 mm 7 m/s 757 mmHg 18%
17:00 +24°C° 0 mm 7 m/s 757 mmHg 17%
18:00 +23°C° 0 mm 6 m/s 757 mmHg 20%
19:00 +21°C° 0 mm 5 m/s 758 mmHg 22%
20:00 +20°C° 0 mm 3 m/s 759 mmHg 25%
21:00 +19°C° 0 mm 4 m/s 759 mmHg 22%
22:00 +17°C° 0 mm 5 m/s 760 mmHg 20%
23:00 +17°C° 0 mm 6 m/s 761 mmHg 18%

28 Aprilie, Miercuri

Timp Temperatura Precipitaţii Vânt Presiune Umiditate
00:00 +16°C° 0 mm 5 m/s 761 mmHg 18%
01:00 +15°C° 0 mm 5 m/s 761 mmHg 19%
02:00 +14°C° 0 mm 5 m/s 761 mmHg 19%
03:00 +13°C° 0 mm 4 m/s 762 mmHg 20%
04:00 +13°C° 0 mm 4 m/s 762 mmHg 22%
05:00 +12°C° 0 mm 3 m/s 763 mmHg 23%
06:00 +14°C° 0 mm 4 m/s 763 mmHg 21%
07:00 +15°C° 0 mm 4 m/s 763 mmHg 19%
08:00 +16°C° 0 mm 5 m/s 763 mmHg 18%
09:00 +19°C° 0 mm 4 m/s 763 mmHg 16%
10:00 +20°C° 0 mm 4 m/s 763 mmHg 14%
11:00 +21°C° 0 mm 4 m/s 763 mmHg 12%
12:00 +21°C° 0 mm 4 m/s 762 mmHg 11%
13:00 +22°C° 0 mm 4 m/s 761 mmHg 11%
14:00 +23°C° 0 mm 4 m/s 761 mmHg 10%
15:00 +23°C° 0 mm 4 m/s 760 mmHg 10%
16:00 +24°C° 0 mm 3 m/s 759 mmHg 10%
17:00 +24°C° 0 mm 3 m/s 759 mmHg 10%
18:00 +22°C° 0 mm 3 m/s 758 mmHg 11%
19:00 +21°C° 0 mm 3 m/s 758 mmHg 13%
20:00 +19°C° 0 mm 3 m/s 758 mmHg 15%
21:00 +19°C° 0 mm 4 m/s 758 mmHg 16%
22:00 +18°C° 0 mm 4 m/s 758 mmHg 18%
23:00 +17°C° 0 mm 5 m/s 758 mmHg 19%
Arată mai mult

Formular de consimțământ

Meteoprog și furnizorii noștri de servicii pot stoca și accesa date personale, precum cookies, identificatori de dispozitiv sau alte tehnologii similare pe dispozitivul dumneavoastră și procesa astfel de date pentru a personaliza conținutul și reclamele, dar și pentru a oferi caracteristici de social media și pentru a analiza traficul.

  • Stocarea și/sau accesarea informațiilor pe dispozitivul dumneavoastră

    Cookies, identificatori de dispozitiv sau alte informații pot fi stocate sau accesate pe dispozitiv în scopurile indicate mai sus.

  • Reclame și conținut personalizat, evaluarea reclamelor și a conținutului, informații despre audiențe și dezvoltarea produselor

    Reclamele și conținutul pot fi personalizate pe baza unui profil. Pot fi adăugate date suplimentare pentru a personaliza mai bine reclamele și conținutul. Performanța reclamelor și conținutului poate fi măsurată. Pot fi obținute informații despre utilizatorii care au văzut reclamele și conținutul. Aceste date pot fi utilizate pentru a dezvolta sau îmbunătăți experiența utilizatorilor, sistemele și software-ul.

Dând clic pe ‘Sunt de acord’, permiteți utilizarea cookie-urilor menționate, a identificatorilor de dispozitiv, balizelor web sau altor tehnologii similare. Setările pot fi modificate din browser-ul dispozitivului dumneavoastră.

În anumite scopuri, interesele legitime pot prima asupra consimțământului. Puteți citi mai multe informații în acest sens în Politica privind Confidențialitatea Datelor și Cookie.